TimeEST,TemperatureF,Dew PointF,Humidity,Sea Level PressureIn,VisibilityMPH,Wind Direction,Wind SpeedMPH,Gust SpeedMPH,PrecipitationIn,Events,Conditions,WindDirDegrees,DateUTC
12:51 AM,37.0,26.1,65,29.86,10.0,WSW,23.0,36.8,N/A,,Overcast,240,2013-02-15 05:51:00
1:51 AM,37.0,23.0,57,29.87,10.0,WSW,19.6,32.2,N/A,,Overcast,250,2013-02-15 06:51:00
2:51 AM,36.0,21.9,57,29.88,10.0,WSW,15.0,28.8,N/A,,Overcast,240,2013-02-15 07:51:00
3:51 AM,36.0,23.0,59,29.89,10.0,WSW,13.8,26.5,N/A,,Overcast,240,2013-02-15 08:51:00
4:51 AM,35.1,23.0,61,29.91,10.0,WSW,15.0,29.9,N/A,,Overcast,250,2013-02-15 09:51:00
5:51 AM,34.0,25.0,70,29.93,10.0,WSW,16.1,23.0,N/A,,Overcast,250,2013-02-15 10:51:00
6:51 AM,33.1,26.1,75,29.95,10.0,WSW,11.5,21.9,N/A,,Overcast,250,2013-02-15 11:51:00
7:35 AM,33.8,26.6,75,29.95,10.0,WSW,10.4,19.6,N/A,,Overcast,250,2013-02-15 12:35:00
7:51 AM,33.1,26.1,75,29.98,10.0,WSW,10.4,-,N/A,,Overcast,250,2013-02-15 12:51:00
8:40 AM,33.8,26.6,75,29.98,10.0,WSW,12.7,19.6,N/A,,Overcast,250,2013-02-15 13:40:00
8:51 AM,33.1,26.1,75,30.01,10.0,WSW,11.5,-,N/A,,Overcast,250,2013-02-15 13:51:00
9:51 AM,33.1,25.0,72,30.02,10.0,West,11.5,-,N/A,,Overcast,260,2013-02-15 14:51:00
10:06 AM,33.8,24.8,70,30.00,10.0,West,10.4,-,N/A,,Overcast,270,2013-02-15 15:06:00
10:27 AM,33.8,24.8,70,30.00,10.0,West,9.2,-,N/A,,Mostly Cloudy,260,2013-02-15 15:27:00
10:51 AM,32.0,25.0,75,30.03,10.0,West,11.5,17.3,N/A,,Overcast,260,2013-02-15 15:51:00
11:51 AM,32.0,24.1,73,30.03,10.0,WNW,10.4,-,0.00,,Overcast,300,2013-02-15 16:51:00
12:19 PM,32.0,24.8,75,30.01,10.0,WNW,9.2,-,N/A,,Overcast,290,2013-02-15 17:19:00
12:47 PM,32.0,24.8,75,30.00,10.0,WSW,8.1,-,N/A,,Overcast,250,2013-02-15 17:47:00
12:48 PM,32.0,25.0,75,30.03,10.0,WSW,8.1,-,N/A,,Overcast,250,2013-02-15 17:48:00
1:38 PM,30.2,21.2,69,30.00,10.0,West,15.0,24.2,N/A,,Overcast,260,2013-02-15 18:38:00
1:51 PM,30.9,21.9,69,30.03,10.0,West,10.4,21.9,N/A,,Overcast,270,2013-02-15 18:51:00
2:51 PM,30.9,18.0,59,30.04,10.0,West,10.4,-,N/A,,Overcast,280,2013-02-15 19:51:00
3:51 PM,30.9,19.9,64,30.04,10.0,West,12.7,19.6,N/A,,Partly Cloudy,280,2013-02-15 20:51:00
4:10 PM,30.2,19.4,64,30.02,10.0,West,12.7,18.4,N/A,,Mostly Cloudy,280,2013-02-15 21:10:00
4:51 PM,28.9,18.0,64,30.06,10.0,West,9.2,-,N/A,,Overcast,270,2013-02-15 21:51:00
5:14 PM,28.4,17.6,64,30.04,10.0,West,8.1,-,N/A,,Overcast,280,2013-02-15 22:14:00
5:51 PM,28.9,17.1,61,30.08,10.0,WNW,8.1,-,N/A,,Overcast,290,2013-02-15 22:51:00
6:36 PM,28.4,17.6,64,30.06,10.0,NW,8.1,-,N/A,,Overcast,320,2013-02-15 23:36:00
6:51 PM,28.0,17.1,63,30.09,10.0,WNW,9.2,-,N/A,,Overcast,300,2013-02-15 23:51:00
7:09 PM,28.4,17.6,64,30.07,10.0,NNW,9.2,-,N/A,,Overcast,340,2013-02-16 00:09:00
7:51 PM,27.0,16.0,63,30.11,10.0,North,6.9,-,N/A,,Overcast,350,2013-02-16 00:51:00
8:48 PM,26.6,14.0,59,30.08,10.0,NW,8.1,-,N/A,,Overcast,320,2013-02-16 01:48:00
8:51 PM,26.1,14.0,60,30.11,10.0,NNW,9.2,-,N/A,,Overcast,340,2013-02-16 01:51:00
9:51 PM,25.0,12.9,60,30.12,10.0,North,6.9,-,N/A,,Overcast,10,2013-02-16 02:51:00
10:51 PM,25.0,12.0,58,30.12,10.0,North,3.5,-,N/A,,Overcast,350,2013-02-16 03:51:00
11:51 PM,25.0,12.0,58,30.11,10.0,North,4.6,-,N/A,,Overcast,350,2013-02-16 04:51:00